Location: Kellogg
(38.0159°N, 90.0546°W)
Time: 21:19:46
(UTC+00:00)

Vanguard 2 - Pass Details

Date: 19 September 2024
Orbit: 552 x 2910 km, 32.9° (Epoch: 09 October)

Event Time Altitude Azimuth Distance (km) Brightness Sun altitude
Rises 09:35:41 0° 255° (WSW) 2,832 - -25.7°
Reaches altitude 10° 09:37:42 10° 250° (WSW) 2,041 - -25.3°
Exits shadow 09:41:49 50° 187° (S) 1,000 7.8 -24.6°
Maximum altitude 09:42:09 51° 174° (S) 1,008 7.9 -24.5°
Drops below altitude 10° 09:48:49 10° 100° (E) 3,036 11.4 -23.3°
Sets 09:52:26 0° 96° (E) 4,389 12.4 -22.6°
